DIRECTV 15 (40663 NORAD) Tracking and Keplerian Element Data

This shows tracking and keplerian element data for the satellite.

Feedback or suggestion? Click here.




ElementValue
Catalog40663
NameDIRECTV 15
Epoch Orbit1153
Epoch Day198.46531909
Epoch Year2018
RAAN80.226
Inclination0.0123
Eccentricity3.37E-05
Argument of Perigee135.097
Mean Anonmoly144.6565
Mean Motion1.00269456
Decay Rate-1.23E-06
L11 40663U 15026A 18198.46531909 -.00000123 00000-0 00000-0 0 9994
L22 40663 0.0123 80.2260 0000337 135.0970 144.6565 1.00269456 11537

Live tracking and technical data element details for DIRECTV 15 (NORAD 40663). DIRECTV 15 can be tracked NOW for your location showing map with azimuth and elevation plus other details from your city location.

Track the satellite on the map from your city or location and see movement details for azimuth, elevation, latitude, longitude, range, height, and movement on the map or in text.







IsCatalogInMostPopularTable: catalog: 40663, numindb: 88
Update: records affected: 1



GetName: 40663 DIRECTV 15

Hit Count: updated at: Sat, 21 Jul 2018 07:44:10 GMT